SL-19 DEB, 23487

Orbit data source: Space-Track

SL-19 DEB, 23487 is space debris in LEO originally from a launch on Mon, 26 Dec 1994 UTC launched from the Tyuratam Missile And Space Complex (TTMTR). Debris objects in space refer to the collection of defunct objects orbiting the Earth. Examples of debris include non-operational satellites, rocket bodies, and fragments generated from explosions, collisions, or faulty payload assembly.

Loading next visibility...
Identifier
23487, 1994-085K
Orbit
LEO
Last TLE update
2 days ago
Origin
Manufacturer
Unknown
Mission
Spacecraft
Bus & Motor
Unknown
Mass
Unknown
Launch date (UTC)
1994-12-26 (31 years ago)
Launch vehicle
Unknown
Launch site
Tyuratam Missile And Space Complex (TTMTR)
Object type
Payload
Rocket body
Debris
Shape & HBR
Unknown
Radar Cross Section
Small (<0.1 m²)

Expand to show TLE details & history

TLE from 2 days ago
0 SL-19 DEB
1 23487U 94085K   25182.61527118 -.00000076  00000-0 -90816-3 0  9991
2 23487  64.9370 127.0170 0179800 251.2156 300.5893 11.30408383259320
Epoch: 2025-07-01T14:45Z
TLE epoch observation values (Epoch: 2025-07-01T14:45:59.429Z)
Latitude
-9.18946°
Longitude
169.92971°
Altitude
1,936.96 km
Speed
6.956 km/s
True Right ascension
20h 45m 20s
True Declination
-9° 08' 35"
Sunlit
Object was in full shadow at epoch
Visualization orbit readout
Latitude
-16.46711°
Longitude
171.08071°
Altitude
1,920.854 km
Speed
6.97 km/s
Apparent Right ascension
22h 53m 28s
Apparent Declination
-33° 55' 19"
Sunlit
Object is in full shadow
Visualization observer readout
Local Sidereal Time
14:39:34
Azimuth
100.983° ESE
Elevation
-45.167°
Doppler factor
1
Orbital elements
Apogee altitude
2,157.874 km
Perigee altitude
1,856.341 km
Semi-major axis
8,385.244 km
Eccentricity
0.01798
Inclination
64.937°
RAAN
127.017°
Arg. of periapsis
251.2156°
True anomaly
Unknown
Mean anomaly
300.5893°
Eccentric anomaly
Unknown
Mean motion
2.82663 °/min
Orbital period
127.36 mins
BSTAR
-0.00090816
Loading maneuver chart data...
Loading SW <> Apogee altitude chart data...
Loading historical data...
Loading historical data...
Loading historical data...
Loading historical data...
Loading historical data...
Loading historical data...
Loading historical data...

SL-19 DEB Visibility forecast

Observer location: undefined°, undefined°

Span
Click to sort rows by Start time (UTC) header in descending order
Start Az.
Max El. time (UTC)
Max El. Az.
Max El.
End time (UTC)
End Az.
19 mins2025-07-03 04:22:28.471Z333.718° NNW2025-07-03 04:32:28.471Z32.318° NE26.697°2025-07-03 04:41:28.471Z85.949° E
22 mins2025-07-03 06:35:28.471Z329.284° NNW2025-07-03 06:46:28.471Z53.345° ENE44.69°2025-07-03 06:57:28.471Z145.58° SSE
16 mins2025-07-03 08:49:28.471Z304.893° NW2025-07-03 08:57:28.471Z256.883° W24.319°2025-07-03 09:05:28.471Z209.506° SW
21 mins2025-07-03 20:54:28.471Z183.243° SSW2025-07-03 21:04:28.471Z109.972° ESE40.062°2025-07-03 21:15:28.471Z38.832° NE
22 mins2025-07-03 23:06:28.471Z244.628° WSW2025-07-03 23:16:28.471Z309.894° NW36.83°2025-07-03 23:28:28.471Z27.678° NE
16 mins2025-07-04 01:25:28.471Z303.485° NW2025-07-04 01:33:28.471Z348.082° N20.698°2025-07-04 01:41:28.471Z31.664° NE
|